Regional Weather Roundup
Issued by NWS Pendleton, OR

Home | Current Version | Previous Version | Text Only | Print | Product List | Glossary On
Versions: 1 2 3 4 5 6 7 8 9 10 11 12 13 14 15 16 17 18 19 20 21 22 23 24 25 26 27 28 29 30 31 32 33 34 35 36 37 38 39 40 41 42 43 44 45 46 47 48 49 50
000
ASUS46 KPDT 170625
RWRPDT
PENDLETON REGIONAL WEATHER ROUNDUP
NATIONAL WEATHER SERVICE PENDLETON OREGON
1000 PM PST MON JAN 16 2017

NOTE: FAIR INDICATES FEW OR NO CLOUDS BELOW 12,000 FEET WITH NO
SIGNIFICANT WEATHER AND/OR OBSTRUCTIONS TO VISIBILITY.

# INDICATES UNOFFICIAL STATION AND DATA

WAZ520-170710-
EAST SLOPES OF WASHINGTON CASCADES

CITY            SKY/WX      TMP DP  RH  WIND    PRES   REMARKS
#CLE ELUM HS    N/A         15   8  73  CALM    30.15S
#CLE ELUM LAKE  N/A         10   8  91  CALM    30.35F
#GLENWOOD       N/A         12   9  87  CALM    30.39F
#NELSON 3SW     N/A          8   6  91  CALM    30.60S
#NILE           N/A          9   6  87  CALM    29.59F
#RONALD 2NW     N/A         14  N/A N/A CALM    29.99S
#TEANAWAY 4NE   N/A         12   8  84  CALM    N/A
#TROUT LAKE 1NE N/A         13  10  87  CALM    30.39F
#TROUT LAKE 1E  N/A         12   9  87  CALM    30.24F
$$

WAZ521-170710-
SIMCOE HIGHLANDS

CITY            SKY/WX      TMP DP  RH  WIND    PRES   REMARKS
#CENTERVILLE 1SWN/A          7   4  87  CALM    30.38F
#GOLDENDALE 1NE N/A          5  -5  62  CALM    N/A
#GOLDENDALE 4W  N/A          7  -20 27  CALM    30.25F
#GOODNOE HILLS  N/A          7  -2  66  W3      N/A
#LYLE 6NE       N/A         11   9  91  CALM    30.37F
#PITT 4SE       N/A          7   5  91  CALM    30.43F
$$

WAZ026-170710-
KITTITAS VALLEY

CITY            SKY/WX      TMP DP  RH  WIND    PRES   REMARKS
ELLENSBURG AP   CLOUDY      14   7  73  MISG    30.23F
6HR MIN TEMP:   9; 6HR MAX TEMP:   15; 6HR PCP:  TRACE;

#ELLENSBURG CWU N/A         12   8  84  CALM    30.32F
#ELLENSBURG 3NE N/A         12   9  87  CALM    28.30F
#ELLENSBURG 1E  N/A         12  N/A N/A CALM    N/A
#KITTITAS 4N    N/A         14   8  76  E1      30.23F
#KITTITAS 3S    N/A         12   8  84  CALM    30.37F
#THORP 6N       N/A          9   7  91  E6      30.40F
$$

WAZ027-170710-
YAKIMA VALLEY

CITY            SKY/WX      TMP DP  RH  WIND    PRES   REMARKS
SUNNYSIDE AP    CLOUDY       6   3  87  CALM    30.34F
YAKIMA AIRPORT  MOCLDY      14   8  76  CALM    30.31F HAZE
6HR MIN TEMP:   11; 6HR MAX TEMP:   17;

YAKIMA-VAGABOND MOCLDY      11   7  83  CALM    30.25F FOG
6HR MIN TEMP:   8; 6HR MAX TEMP:   14;

#NACHES 2SW     N/A         12   9  87  CALM    30.25S
#TERRACE HTS    N/A         13  10  87  CALM    30.38F
#TOPPENISH      N/A         10   7  87  CALM    30.32F
#WEST VALLEY    N/A         12   9  87  CALM    30.39F
#W YAKIMA       N/A         12   9  87  CALM    30.40F
#WHITE SWAN 5E  N/A          9   6  87  CALM    30.42F
#WILEY CITY 3W  N/A         12   5  73  CALM    30.22F
$$

WAZ028-170710-
LOWER COLUMBIA BASIN...WASHINGTON

CITY            SKY/WX      TMP DP  RH  WIND    PRES   REMARKS
PASCO           CLOUDY       4   2  91  N5      30.40S
PROSSER AWOS    N/A          9   7  91  CALM    30.38F
RICHLAND AWOS   LGT SNOW     8   6  91  CALM    30.39F
#BENTON CITY    N/A          6   3  87  CALM    30.33F
#CONNELL 5N     N/A          1  -2  87  CALM    30.44R
#CONNELL 5NW    N/A          2  -1  87  CALM    30.40F
#ELTOPIA 6NW    N/A          8   5  87  CALM    29.30F
#KAHLOTUS       N/A          5   2  87  CALM    30.42R
#KENNEWICK 3S   N/A          9   6  87  CALM    30.43S
#PATERSON       N/A          7   3  83  CALM    30.41F
#SAGEMOOR 2W    N/A          8   5  87  CALM    30.27S
#TOUCHET 2S     N/A         -1  -4  87  CALM    30.42S
#WEST PASCO     N/A         11   7  83  CALM    30.42S
$$

WAZ029-170710-
FOOTHILLS OF THE BLUES...WASHINGTON

CITY            SKY/WX      TMP DP  RH  WIND    PRES   REMARKS
WALLA WALLA AP  CLEAR        5   1  83  E3      30.29F
6HR MIN TEMP:   3; 6HR MAX TEMP:   7; 6HR PCP:  TRACE;

#CLYDE 6NW      N/A          4   1  87  CALM    30.40F
#DAYTON SCHOOL  N/A          3  -5  68  N1      30.26F
#LOWDEN 2SE     N/A          2  -1  87  CALM    30.34F
#PLEASANT VIEW 1N/A          5   3  91  CALM    30.47F
#PRESCOTT       N/A          1  -2  87  CALM    30.42F
#WHITMAN COLLEGEN/A         10   6  83  CALM    30.47F
#WAITSBURG 5S   N/A          4   1  87  NE3     30.51F
#WAITSBURG 8N   N/A          0  N/A N/A CALM    30.29F
#WALLA WALLA 5E N/A          4   1  87  NE2     N/A
#WALLA WALLA U  N/A          9   6  87  CALM    30.42F
#WHITMAN MISSIONN/A          4   1  87  CALM    30.43F
$$

WAZ030-170710-
BLUE MOUNTAINS...WASHINGTON

CITY            SKY/WX      TMP DP  RH  WIND    PRES   REMARKS
#DIXIE 5SE      N/A         13  10  87  N7      30.02F
#SKI BLUEWOOD   N/A         22  19  88  SW3     30.09F
$$

ORZ009-041-WAZ024-170710-
COLUMBIA RIVER GORGE

CITY            SKY/WX      TMP DP  RH  WIND    PRES   REMARKS
HOOD RIVER AP   CLOUDY      16   9  73  NE5     30.35F
THE DALLES AP   CLOUDY      13   8  80  E6      30.39F
#ARLINGTON AIRPON/A         10   7  87  CALM    30.42F
#ARLINGTON HS   N/A          5   0  79  W2      30.32F
#CELILO DOT     N/A         14   6  70  CALM    N/A
#LYLE           N/A         17  12  80  CALM    30.42F
#MOSIER 1S      N/A         14  -2  48  CALM    30.29F
#MURDOCK        N/A         15  10  80  CALM    30.38F
#RUFUS DOT      N/A         13   9  84  S8      N/A
#SMITHVILLE     N/A         14  10  84  N2      30.35F

$$

ORZ510-170710-
NORTH CENTRAL OREGON

CITY            SKY/WX      TMP DP  RH  WIND    PRES   REMARKS
#ANTELOPE       N/A          5   1  83  CALM    30.31S
#CHENOWITH 1W   N/A         10   8  91  E1      N/A
#COW CYN RST AREN/A          9  N/A N/A E2      N/A
#DUFUR 9E       N/A          6   4  91  SW2     30.47F
#GRASS VALLEY 1SN/A          4   1  87  CALM    30.10F
#KENT DOT       N/A          2  -4  75  N1      N/A
#MAUPIN SCHOOL  N/A          7   0  72  CALM    30.35F
#SHANIKO 5WSW   N/A         21  13  71  N5      N/A
#SHANIKO 4NW    N/A         23  16  74  SW1     30.08S
#TYGH VALLEY 2NEN/A          4   0  83  CALM    30.43F
#WAPANITIA AIRPON/A          1  -2  87  CALM    30.45F
#WASCO DOT      N/A          7   3  83  E2      N/A
#WASCO 5NE      N/A          3   0  87  CALM    30.42F
$$

ORZ511-170710-
CENTRAL OREGON

CITY            SKY/WX      TMP DP  RH  WIND    PRES   REMARKS
BEND AIRPORT    PTCLDY      27  18  68  S8      30.11F
MADRAS AIRPORT  CLEAR        1  -2  87  CALM    30.20F
PRINEVILLE AP   CLEAR       28  18  66  S8      30.13S
REDMOND AIRPORT PTCLDY       8   2  76  CALM    30.11F
6HR MIN TEMP:   6; 6HR MAX TEMP:   22;

#ASHWOOD SCHOOL N/A          9   5  83  CALM    30.12R
#BEND 1SW       N/A         30  26  85  SW3     N/A
#BEND-AWBREY    N/A         29  26  88  E3      30.25F
#BEND-KIM LN    N/A         13  11  91  CALM    30.30F
#CULVER         N/A          5   2  87  CALM    30.36F
#CULVER 8W      N/A          6  -5  60  CALM    30.12F
#MADRAS 4S      N/A          4  -22 28  CALM    30.22F
#POWELL BUTTE   N/A         32  14  47  N1      30.04F
#PRINEVILLE 3N  N/A         16  14  92  SE2     30.38S
#WARM SPRINGS   N/A          4   0  83  CALM    30.21F

$$


ORZ509-170710-
EAST SLOPES OF OREGON CASCADES

CITY            SKY/WX      TMP DP  RH  WIND    PRES   REMARKS
#CAMP SHERMAN   N/A         15  11  84  CALM    30.41F
#LA PINE 4NW    N/A         22  18  84  CALM    30.40S
#LAVA BUTTE DOT N/A         27  19  71  S2      N/A
#SISTERS ODOT   N/A         13  N/A N/A CALM    N/A
#SISTERS 3N     N/A         10   2  69  CALM    30.11F
#SUNRIVER       N/A         25  22  88  SW1     30.10F
#TUMALO 3W      N/A         26  24  92  CALM    30.15F
#WANOGA BUTTE D N/A         38  14  37  W6      N/A

$$

ORZ044-170710-
LOWER COLUMBIA BASIN...OREGON

CITY            SKY/WX      TMP DP  RH  WIND    PRES   REMARKS
HERMISTON       CLEAR        3   0  87  CALM    30.36S FOG
6HR MIN TEMP:   1; 6HR MAX TEMP:   13;

#BOARDMAN SCHOOLN/A          6   2  83  CALM    30.39F
#ECHO 8SW       N/A          2  -5  72  SW1     30.37F
#I-84 EX 198 DOTN/A          6   3  87  SE2     N/A
#UMATILLA       N/A          8   3  79  CALM    30.37S
$$

ORZ507-170710-
NORTHERN FOOTHILLS OF THE BLUES

CITY            SKY/WX      TMP DP  RH  WIND    PRES   REMARKS
PENDLETON AIRPT PTCLDY       2   1  95  NE5     30.25F FOG
6HR MIN TEMP:   1; 6HR MAX TEMP:   8;

#ADAMS 3WNW     N/A          0  -3  87  N1      30.42F
#ATHENA         N/A          2  -1  87  CALM    30.44F
#CAYUSE         N/A          6   3  87  NE5     30.40F
#HELIX SCHOOL   N/A          1  -2  87  N5      30.42F
#HELIX 3N       N/A          5   2  87  CALM    30.18F
#HOLDMAN 6E     N/A          3   0  87  CALM    30.20F
#PENDLETON DNTN N/A          5  -6  59  CALM    30.30S
#PDT AQUATIC CTRN/A          3  -6  65  CALM    30.28F
#PDT SUNRIDGE   N/A          0  -4  83  CALM    30.30F
#PENDLETON 7NW  N/A          3  -3  75  CALM    30.38S
#PILOT ROCK 1S  N/A          3  -5  68  CALM    30.22F
#PILOT ROCK     N/A          5   0  79  S1      30.25S
#TUTUILLA       N/A          0  -4  83  CALM    30.37F
#WESTON SCHOOL  N/A          3  -4  72  CALM    30.12F

$$

ORZ508-170710-
SOUTHERN FOOTHILLS OF THE BLUES

CITY            SKY/WX      TMP DP  RH  WIND    PRES   REMARKS
LEXINGTON       PTCLDY       3   0  87  CALM    30.29R
#AJAX           N/A          6  -4  62  CALM    27.94F
#CONDON SCHOOL  N/A          7   4  87  SE2     30.08S
#CONDON 5W      N/A         10   6  83  CALM    30.05F
#FOSSIL SCHOOL  N/A          9   6  87  CALM    30.08R
#HEPPNER EOC    N/A          7   3  83  CALM    30.36S
#HEPPNER 4NE    N/A          9   5  83  CALM    30.44S
#LEXINGTON 2SE  N/A          3  -2  79  CALM    30.22R
#MIKKALO        N/A          2  -6  68  E1      30.37F
#OLEX 4N        N/A          6   3  87  SW2     30.27F
#RUGGS 5NE      N/A         11  -3  52  CALM    30.27S
#RUGGS 2SW      N/A          6   3  87  W8      30.45S

$$

ORZ502-503-170710-
BLUE MOUNTAINS

CITY            SKY/WX      TMP DP  RH  WIND    PRES   REMARKS
MEACHAM         PTCLDY      18   9  67  CALM    30.14F
6HR MIN TEMP:   16; 6HR MAX TEMP:   22;

#BATTLE MTN DOT N/A         26  15  63  S12     N/A    WCI 15
#GREENHORN 9SW  N/A         14   9  80  E1      30.17R
#HEPPNER 15SE   N/A         35  23  61  SE1     30.22S
#LADD CYN SMT   N/A          6   2  83  SW3     N/A
#LADD CREEK ODOTN/A          8   3  79  SW8     N/A
#LONG CREEK HS  N/A         23  22  96  CALM    N/A
#N POWDER DOT   N/A         -6  -9  86  W7      N/A
#PIKES PEAK     N/A         34  20  56  CALM    27.99S
#TOLLGATE       N/A         16  12  84  NE2     29.95F
#TROY SCHOOL    N/A         13  10  87  NW1     30.35S
#UKIAH          N/A          5   2  87  CALM    30.43F
#WESTON 4E      N/A         27  18  68  E17G25  30.29F WCI 14
$$

ORZ505-170710-
JOHN DAY BASIN

CITY            SKY/WX      TMP DP  RH  WIND    PRES   REMARKS
JOHN DAY        PTCLDY      28  21  75  E8      30.17S
#JOHN DAY KJDY  N/A         21  N/A N/A NE3     30.83F
#ANTELOPE 9ESE  N/A          6   2  83  CALM    N/A
#DAYVILLE SCHOOLN/A         24  18  77  E2      30.14F
#MITCHELL       N/A          9   6  87  CALM    30.28F
#MITCHELL 8NW   N/A         19  17  92  S1      30.13F
#MONUMENT HS    N/A          9   4  80  CALM    30.34F
#MT. VERNON 5SE N/A         32  20  61  SE7     30.09F
#SPRAY SCHOOL   N/A          6  N/A N/A CALM    N/A
$$

ORZ506-170710-
OCHOCO AND JOHN DAY HIGHLANDS

CITY            SKY/WX      TMP DP  RH  WIND    PRES   REMARKS
#HORSE RIDGE DO N/A         24  15  68  SE16    N/A    WCI 11
#KEYES SMT DOT  N/A         27  17  65  E6      N/A
#PAULINA SCHOOL N/A         13  10  87  NW1     N/A
#PINE MTN OBS   N/A         38  11  32  S12     N/A    WCI 30
#SENECA         N/A         -1  N/A N/A CALM    N/A
#SENECA 9NW     N/A         11   9  91  CALM    30.58S
$$

ORZ049-170710-
GRANDE RONDE VALLEY

CITY            SKY/WX      TMP DP  RH  WIND    PRES   REMARKS
LA GRANDE       PTCLDY      18  10  70  S20G32  30.26F WCI  2
#COVE           N/A          6   2  83  CALM    30.31S
#COVE 6NW       N/A         11   7  83  SE5     30.60S
#ELGIN 3N       N/A          8  -5  54  SW5     30.24F
#ELGIN 1E       N/A         13   7  76  CALM    N/A
#IMBLER SCHOOL  N/A         10   6  83  S15     30.23F WCI -7
#ISLAND CITY 4N N/A         30  28  92  CALM    30.11S
#UNION 1S       N/A         10   5  80  S18G35  30.59S WCI -8
$$

ORZ050-170710-
WALLOWA COUNTY

CITY            SKY/WX      TMP DP  RH  WIND    PRES   REMARKS
JOSEPH AIRPORT  PTCLDY       1  -2  87  CALM    30.20F
#IMNAHA SCHOOL  N/A         15  12  88  CALM    30.28S
#IMNAHA 10S     N/A         15  12  88  CALM    30.20R
#JOSEPH 3N      N/A         -2  -11 64  CALM    30.21F
#JOSEPH 3W      N/A          7   0  72  CALM    29.96F
#LOSTINE        N/A          0  -2  91  CALM    30.42F
#LOSTINE 3SE    N/A          4   1  87  S2      30.29F
#MT HOWARD 8000 N/A         40   7  25  SW6     30.11R
#PROMISE 1S     N/A         13   8  80  CALM    30.56F
#WALLOWA SCHOOL N/A         -4  -7  86  CALM    30.24S



$$



USA.gov is the U.S. government's official web portal to all federal, state and local government web resources and services.